Change the Weather History Date:

Saturday, March 26, 2011

  Actual Average Record
Temperature  
Mean Temperature 36 °F 44 °F  
Max Temperature 39 °F 57 °F 79 °F (1954)
Min Temperature 32 °F 32 °F 18 °F (1960)
Degree Days  
Heating Degree Days 29 20  
Month to date heating degree days 542 629  
Since 1 July heating degree days 4597 4677  
Cooling Degree Days 0 0  
Month to date cooling degree days 0 0  
Year to date cooling degree days 0 0  
Moisture  
Dew Point 31 °F    
Average Humidity 85    
Maximum Humidity 100    
Minimum Humidity 70    
Precipitation  
Precipitation 0.10 in 0.13 in 1.30 in (1978)
Month to date precipitation 3.83 2.99  
Year to date precipitation 7.63 8.88  
Snow  
Snow T in - - ()
Month to date snowfall T  
Since 1 July snowfall 18.2  
Snow Depth 0.00 in    
Sea Level Pressure  
Sea Level Pressure 29.95 in    
Wind  
Wind Speed 5 mph (East)    
Max Wind Speed 9 mph    
Max Gust Speed -    
Visibility 10 miles    
Events Rain    
T = Trace of Precipitation, MM = Missing Value Source: NWS Daily Summary

Daily Weather History Graph

Daily Weather History Graph

Search for Another Location

Airport or City:

Trip Planner

Search our weather history database for the weather conditions in past years. The results will help you decide how hot, cold, wet, or windy it might be!

Date:

Astronomy

Mar. 26, 2011 Rise Set
Actual Time 7:16 AM EDT 7:38 PM EDT
Civil Twilight 6:50 AM EDT 8:04 PM EDT
Nautical Twilight 6:20 AM EDT 8:35 PM EDT
Astronomical Twilight 5:48 AM EDT 9:06 PM EDT
Moon 2:34 AM EDT (3/26) 12:26 PM EDT (3/26)
Length of Visible Light 13h 14m
Length of Day
12h 22m
Waning Gibbous, 48% of the Moon is Illuminated
Mar 26
Waning Gibbous
Apr 3
New
Apr 11
First Quarter
Apr 17
Full
Apr 24
Last Quarter

Hourly Weather History & Observations

Time (EDT) Temp. Windchill Dew Point Humidity Pressure Visibility Wind Dir Wind Speed Gust Speed Precip Events Conditions
12:00 AM 37.4 °F - 33.8 °F 87% 29.98 in 10.0 mi Calm Calm - N/A   Overcast
12:20 AM 37.4 °F - 33.8 °F 87% 29.97 in 10.0 mi Calm Calm - N/A   Overcast
12:40 AM 37.4 °F 33.8 °F 33.8 °F 87% 29.97 in 10.0 mi NW 4.6 mph - N/A   Overcast
1:00 AM 37.4 °F 32.8 °F 33.8 °F 87% 29.97 in 10.0 mi NW 5.8 mph - N/A   Overcast
1:20 AM 37.4 °F 32.8 °F 32.0 °F 81% 29.96 in 10.0 mi NW 5.8 mph - N/A   Overcast
1:40 AM 37.4 °F 32.1 °F 32.0 °F 81% 29.97 in 10.0 mi NW 6.9 mph - N/A   Overcast
2:00 AM 37.4 °F 33.8 °F 32.0 °F 81% 29.97 in 10.0 mi WNW 4.6 mph - N/A   Overcast
2:20 AM 35.6 °F 32.8 °F 32.0 °F 87% 29.96 in 10.0 mi NW 3.5 mph - N/A   Overcast
2:40 AM 35.6 °F - 32.0 °F 87% 29.97 in 10.0 mi Calm Calm - N/A   Overcast
3:00 AM 35.6 °F 31.7 °F 32.0 °F 87% 29.97 in 10.0 mi NNW 4.6 mph - N/A   Overcast
4:00 AM 35.6 °F 32.8 °F 32.0 °F 87% 29.97 in 10.0 mi West 3.5 mph - N/A   Overcast
4:20 AM 35.6 °F 30.7 °F 30.2 °F 81% 29.97 in 10.0 mi NW 5.8 mph - N/A   Overcast
5:00 AM 35.6 °F - 30.2 °F 81% 29.97 in 10.0 mi Calm Calm - N/A   Overcast
5:20 AM 35.6 °F - 32.0 °F 87% 29.97 in 10.0 mi Calm Calm - N/A   Overcast
5:40 AM 35.6 °F - 32.0 °F 87% 29.97 in 10.0 mi Calm Calm - N/A   Overcast
6:00 AM 35.6 °F - 32.0 °F 87% 29.98 in 10.0 mi Calm Calm - N/A   Overcast
6:20 AM 35.6 °F - 32.0 °F 87% 29.98 in 10.0 mi Calm Calm - N/A   Overcast
6:40 AM 35.6 °F 32.8 °F 30.2 °F 81% 29.98 in 10.0 mi North 3.5 mph - N/A   Overcast
7:00 AM 35.6 °F 32.8 °F 30.2 °F 81% 29.98 in 10.0 mi NE 3.5 mph - N/A   Overcast
7:20 AM 35.6 °F 32.8 °F 28.4 °F 75% 29.99 in 10.0 mi ENE 3.5 mph - N/A   Overcast
8:00 AM 35.6 °F 32.8 °F 30.2 °F 81% 30.00 in 10.0 mi NE 3.5 mph - N/A   Overcast
8:40 AM 35.6 °F 31.7 °F 30.2 °F 81% 30.00 in 10.0 mi NE 4.6 mph - N/A   Overcast
9:00 AM 35.6 °F 31.7 °F 30.2 °F 81% 29.99 in 10.0 mi East 4.6 mph - N/A   Overcast
9:40 AM 35.6 °F 32.8 °F 30.2 °F 81% 30.00 in 10.0 mi East 3.5 mph - N/A   Overcast
10:20 AM 35.6 °F 31.7 °F 30.2 °F 81% 30.00 in 10.0 mi East 4.6 mph - N/A   Overcast
11:00 AM 35.6 °F 30.7 °F 30.2 °F 81% 29.99 in 10.0 mi East 5.8 mph - N/A   Overcast
11:20 AM 35.6 °F 31.7 °F 30.2 °F 81% 29.99 in 10.0 mi East 4.6 mph - N/A   Overcast
11:40 AM 35.6 °F 31.7 °F 30.2 °F 81% 29.99 in 10.0 mi East 4.6 mph - N/A   Overcast
12:00 PM 35.6 °F 32.8 °F 30.2 °F 81% 29.99 in 10.0 mi ESE 3.5 mph - N/A   Overcast
12:20 PM 35.6 °F 30.7 °F 30.2 °F 81% 29.99 in 10.0 mi ESE 5.8 mph - N/A   Overcast
12:40 PM 37.4 °F 33.8 °F 30.2 °F 75% 29.99 in 10.0 mi ESE 4.6 mph - N/A   Overcast
1:00 PM 37.4 °F 33.8 °F 30.2 °F 75% 29.98 in 10.0 mi East 4.6 mph - N/A   Overcast
1:20 PM 37.4 °F 32.8 °F 30.2 °F 75% 29.97 in 10.0 mi East 5.8 mph - N/A   Overcast
1:40 PM 37.4 °F 33.8 °F 30.2 °F 75% 29.96 in 10.0 mi East 4.6 mph - N/A Rain Light Rain
2:00 PM 37.4 °F 34.9 °F 30.2 °F 75% 29.96 in 10.0 mi ESE 3.5 mph - N/A   Overcast
2:20 PM 37.4 °F 33.8 °F 30.2 °F 75% 29.96 in 10.0 mi East 4.6 mph - N/A   Overcast
2:40 PM 37.4 °F 33.8 °F 30.2 °F 75% 29.94 in 10.0 mi East 4.6 mph - N/A   Overcast
3:00 PM 39.2 °F 35.9 °F 30.2 °F 70% 29.94 in 10.0 mi ENE 4.6 mph - N/A   Overcast
3:40 PM 39.2 °F - 30.2 °F 70% 29.92 in 10.0 mi Calm Calm - N/A   Overcast
4:00 PM 37.4 °F 32.8 °F 30.2 °F 75% 29.93 in 10.0 mi East 5.8 mph - N/A   Overcast
4:20 PM 39.2 °F 35.0 °F 30.2 °F 70% 29.92 in 10.0 mi East 5.8 mph - N/A   Overcast
4:40 PM 39.2 °F 33.6 °F 30.2 °F 70% 29.91 in 10.0 mi ESE 8.1 mph - N/A   Overcast
5:00 PM 39.2 °F 34.2 °F 30.2 °F 70% 29.90 in 10.0 mi ESE 6.9 mph - N/A   Overcast
5:20 PM 37.4 °F 34.9 °F 30.2 °F 75% 29.91 in 10.0 mi SE 3.5 mph - N/A   Overcast
5:40 PM 39.2 °F 33.6 °F 30.2 °F 70% 29.90 in 10.0 mi East 8.1 mph - N/A   Overcast
6:00 PM 37.4 °F 32.8 °F 30.2 °F 75% 29.91 in 10.0 mi East 5.8 mph - N/A   Overcast
6:20 PM 37.4 °F 32.8 °F 30.2 °F 75% 29.91 in 10.0 mi East 5.8 mph - N/A   Overcast
6:40 PM 37.4 °F 30.8 °F 30.2 °F 75% 29.90 in 10.0 mi East 9.2 mph - N/A   Overcast
7:00 PM 37.4 °F 31.4 °F 28.4 °F 70% 29.90 in 10.0 mi East 8.1 mph - N/A   Overcast
7:20 PM 37.4 °F 32.1 °F 28.4 °F 70% 29.92 in 10.0 mi East 6.9 mph - N/A   Overcast
7:40 PM 37.4 °F 31.4 °F 28.4 °F 70% 29.90 in 10.0 mi East 8.1 mph - N/A   Overcast
8:00 PM 37.4 °F 30.8 °F 28.4 °F 70% 29.91 in 10.0 mi East 9.2 mph - N/A   Overcast
8:20 PM 37.4 °F 30.8 °F 28.4 °F 70% 29.90 in 10.0 mi East 9.2 mph - N/A   Overcast
8:40 PM 35.6 °F 29.9 °F 28.4 °F 75% 29.91 in 10.0 mi East 6.9 mph - N/A   Overcast
9:00 PM 35.6 °F 29.9 °F 28.4 °F 75% 29.92 in 10.0 mi ESE 6.9 mph - N/A   Overcast
9:20 PM 35.6 °F 30.7 °F 30.2 °F 81% 29.92 in 4.0 mi ESE 5.8 mph - N/A Rain Rain
9:40 PM 33.8 °F 28.6 °F 32.0 °F 93% 29.91 in 4.0 mi SE 5.8 mph - 0.02 in Rain Light Rain
10:00 PM 33.8 °F - 32.0 °F 93% 29.92 in 7.0 mi Calm Calm - N/A   Drizzle
10:20 PM 33.8 °F 30.8 °F 33.8 °F 100% 29.92 in 7.0 mi ESE 3.5 mph - 0.01 in Rain Light Rain
10:40 PM 33.8 °F - 33.8 °F 100% 29.91 in 5.0 mi Calm Calm - 0.02 in Rain Rain
11:00 PM 33.8 °F 28.6 °F 33.8 °F 100% 29.90 in 7.0 mi East 5.8 mph - 0.01 in   Drizzle
11:20 PM 33.8 °F 28.6 °F 33.8 °F 100% 29.91 in 7.0 mi East 5.8 mph - 0.01 in   Drizzle
11:40 PM 33.8 °F 27.7 °F 33.8 °F 100% 29.89 in 5.0 mi ESE 6.9 mph - 0.01 in   Overcast